Flag for U.S.A. Weather past 2 weeks in Fremont, California, U.S.A.

Now
55 °F

Overcast.


Feels Like: 55 °F
Forecast: 53 / 66 °F
Wind: 3 mph from West

Location: Moffett Field

Current Time: Apr 21, 2015 at 5:15:02 AM

Latest Report: Apr 21, 2015 at 4:56 AM


Visibility: 10 mi

Pressure: 29.87 "Hg

Humidity: 72%

Dew point: 46 °F

Location of FremontLocation

Historic Weather in Fremont — Graph

°F

Fremont temperature yesterday

Maximum temperature yesterday: 65 °F (at 3:56 PM)
Minimum temperature yesterday: 54 °F (at 11:56 PM)
Average temperature yesterday: 59 °F

Past Weeks' High & Low Weather Summary

 TemperatureHumidityPressure
High80 °F (Apr 16, 3:56 PM)94% (Apr 7, 8:01 AM)30.36 "Hg (Apr 7, 8:01 AM)
Low42 °F (Apr 6, 5:56 AM)17% (Apr 16, 3:56 PM)29.81 "Hg (Apr 7, 4:56 AM)
Average58 °F59%30.04 "Hg
* Reported Apr 6 3:56 AM — Apr 21 3:56 AM, Fremont, Weather by CustomWeather, © 2015

Note: Actual official high and low records may vary slightly from our data, if they occured in-between our weather recording intervals... More about our weather records

Advertising

Fremont weather history for previous 24 hours

 ConditionsComfort  
Time TempWeatherWind HumidityBarometerVisibility
3:56 AM
Tue, Apr 21
56 °FOvercast.No wind75%29.87 "Hg10 mi
2:56 AM56 °FOvercast.No wind77%29.87 "Hg10 mi
1:56 AM56 °FOvercast.5 mph77%29.87 "Hg10 mi
12:56 AM56 °FOvercast.No wind81%29.88 "Hg10 mi
11:56 PM
Mon, Apr 20
54 °FPassing clouds.No wind80%29.88 "Hg10 mi
10:56 PM55 °FClear.8 mph80%29.88 "Hg10 mi
9:56 PM56 °FClear.6 mph77%29.88 "Hg10 mi
8:56 PM57 °FClear.7 mph78%29.87 "Hg10 mi
7:56 PM58 °FSunny.13 mph75%29.86 "Hg10 mi
6:56 PM60 °FSunny.14 mph69%29.85 "Hg10 mi
5:56 PM62 °FSunny.17 mph65%29.85 "Hg10 mi
4:56 PM64 °FSunny.15 mph65%29.85 "Hg10 mi
3:56 PM65 °FSunny.18 mph63%29.85 "Hg10 mi
2:56 PM64 °FSunny.15 mph65%29.87 "Hg10 mi
1:56 PM64 °FSunny.10 mph65%29.88 "Hg10 mi
12:56 PM63 °FSunny.No wind68%29.89 "Hg10 mi
11:56 AM63 °FPartly sunny.6 mph68%29.91 "Hg10 mi
10:56 AM60 °FOvercast.6 mph72%29.92 "Hg10 mi
9:56 AM58 °FOvercast.5 mph75%29.92 "Hg10 mi
8:56 AM57 °FOvercast.3 mph78%29.91 "Hg10 mi
7:56 AM56 °FOvercast.6 mph81%29.91 "Hg10 mi
6:56 AM56 °FOvercast.3 mph81%29.90 "Hg10 mi
5:56 AM56 °FOvercast.3 mph84%29.89 "Hg10 mi
Weather by CustomWeather, © 2015

See weather overviewHow to use our weather pages